This demonstration page uses our WeatherBlox Daily Observations layout. Learn more.

Left ArrowRight Arrow

Hourly Observations for February 15, 2016

Temp ( °F °C ) Dew Point ( °F °C ) Humidity (%) Winds ( mph kmh ) Pressure ( in mb ) Visibility ( mi km ) Precip ( " mm )
12:40 am 00:40 Cloudy with Light Snow 23 -5 16 -8.9 74 74 ESE 8 13 30.50 1033 2 3 0.00 0.03
12:51 am 00:51 Cloudy with Light Snow 23 -5 17 -8.3 78 78 E 6 9 30.50 1033 1 2 0.00 0.03
12:59 am 00:59 Cloudy with Light Snow 23 -5 18 -7.8 81 81 SSE 6 9 30.51 1033 1 2 0.00 0.03
1:29 am 01:29 Cloudy with Light Snow 23 -5 18 -7.8 81 81 Calm 30.53 1034 2 3 0.00 0.03
1:59 am 01:59 Cloudy with Light Snow 23 -5 19 -7.2 85 85 Calm 30.51 1033 1 2 0.01 0.25
2:43 am 02:43 Cloudy with Light Snow 23 -5 20 -6.7 88 88 NW 3 6 30.50 1033 2 3 0.02 0.51
2:59 am 02:59 Cloudy with Light Snow 24 -4.4 20 -6.7 84 84 NW 5 7 30.51 1033 2 3 0.02 0.51
3:47 am 03:47 Cloudy with Light Snow 25 -3.9 22 -5.6 88 88 NNE 3 6 30.48 1032 3 5 0.02 0.51
3:59 am 03:59 Cloudy with Light Snow 26 -3.3 23 -5 88 88 NNE 5 7 30.48 1032 4 6 0.02 0.51
4:59 am 04:59 Cloudy with Light Snow 28 -2.2 24 -4.4 85 85 ENE 5 7 30.47 1032 2 3 0.00 0.03
5:08 am 05:08 Cloudy with Light Snow 28 -2.2 24 -4.4 85 85 ENE 6 9 30.48 1032 2 3 0.00 0.03
5:59 am 05:59 Cloudy with Light Snow 29 -1.7 26 -3.3 89 89 E 5 7 30.44 1031 2 3 0.02 0.51
6:59 am 06:59 Cloudy with Light Snow 30 -1.1 27 -2.8 88 88 ENE 5 7 30.43 1030 2 3 0.03 0.76
7:33 am 07:33 Cloudy with Light Snow 31 -0.6 28 -2.2 89 89 NE 8 13 30.42 1030 2 3 0.01 0.25
7:59 am 07:59 Cloudy with Light Snow 32 0 29 -1.7 88 88 NE 10 17 30.41 1030 2 3 0.03 0.76
8:25 am 08:25 Cloudy with Light Rain/Snow 33 0.6 30 -1.1 89 89 ENE 9 15 30.42 1030 3 5 0.02 0.51
8:56 am 08:56 Cloudy with Mist and Fog 34 1 30 -1 87 87 NE 8 13 30.42 1030 3 5 0.05 1.27
8:59 am 08:59 Cloudy with Mist and Fog 34 1.1 31 -0.6 89 89 ENE 9 15 30.40 1030 3 5 0.05 1.27
9:59 am 09:59 Cloudy with Mist and Fog 35 1.7 33 0.6 93 93 ENE 7 11 30.38 1029 4 6 0.04 1.02
10:31 am 10:31 Cloudy with Light Rain 36 2.2 34 1.1 93 93 ENE 7 11 30.36 1028 3 5 0.06 1.52
10:59 am 10:59 Cloudy with Light Rain 37 2.8 35 1.7 93 93 ENE 9 15 30.35 1028 3 5 0.11 2.79
11:21 am 11:21 Cloudy with Light Rain 37 2.8 35 1.7 93 93 NNE 9 15 30.33 1027 3 4 0.04 1.02
11:59 am 11:59 Cloudy with Light Rain 37 2.8 35 1.7 93 93 ENE 9 15 30.30 1026 3 4 0.12 3.05
12:59 pm 12:59 Cloudy with Light Rain 36 2.2 34 1.1 93 93 NNE 7 11 30.27 1025 3 5 0.07 1.78
1:59 pm 13:59 Cloudy with Light Rain 37 2.8 36 2.2 96 96 Calm 30.24 1024 5 8 0.05 1.27
2:59 pm 14:59 Cloudy with Mist and Fog 37 2.8 36 2.2 96 96 NE 5 7 30.22 1023 5 8 0.00 0.03
3:59 pm 15:59 Cloudy with Mist and Fog 38 3.3 35 1.7 89 89 N 3 6 30.20 1023 5 8 0.00 0.00
4:16 pm 16:16 Cloudy with Mist and Fog 37 2.8 35 1.7 93 93 Calm 30.21 1023 1 2 0.00 0.00
4:49 pm 16:49 Cloudy with Fog 38 3.3 36 2.2 93 93 ENE 3 6 30.18 1022 1 1 0.00 0.00
4:59 pm 16:59 Cloudy with Fog 38 3.3 36 2.2 93 93 Calm 30.19 1022 1 1 0.00 0.00
5:59 pm 17:59 Mostly Cloudy with Fog 38 3.3 37 2.8 97 97 Calm 30.18 1022 0 0 0.00 0.00
6:59 pm 18:59 Cloudy with Fog 38 3.3 36 2.2 93 93 Calm 30.17 1022 1 1 0.00 0.00
7:16 pm 19:16 Cloudy with Mist and Fog 38 3.3 37 2.8 97 97 Calm 30.18 1022 1 2 0.00 0.00
7:46 pm 19:46 Cloudy with Light Rain 38 3.3 37 2.8 97 97 Calm 30.18 1022 2 2 0.00 0.03
7:59 pm 19:59 Cloudy with Light Rain 38 3.3 36 2.2 93 93 SW 3 6 30.17 1022 2 3 0.01 0.25
8:59 pm 20:59 Cloudy with Mist and Fog 40 4.4 38 3.3 93 93 E 5 7 30.13 1020 2 3 0.05 1.27
9:59 pm 21:59 Cloudy with Mist and Fog 44 6.7 41 5 89 89 ESE 7 11 30.09 1019 5 8 0.00 0.00
10:59 pm 22:59 Partly Cloudy 53 11.7 48 8.9 83 83 SSE 10 17 30.06 1018 10 16 0.00 0.00
11:59 pm 23:59 Partly Cloudy 56 13.3 47 8.3 72 72 SSE 12 19 30.04 1017 10 16 0.00 0.00

Powered by AerisWeather